Location: Arrakis Observatory
(44.1122°N, 95.7153°W)
Time: 01:48:03
(UTC-05:00)

Amateur Radio Satellites - All Passes

Search period start: 25 July 2017 01:18
Search period end: 26 July 2017 01:18
Location: Arrakis Observatory, 44.1122°N, 95.7153°W

Satellite Date Start Highest point End Downlink Frequencies (MHz)
Time Altitude Azimuth
Tancredo 1 25 Jul 01:20:06 01:22:33 23° 14° (NNE) 01:25:01 437.200
50 SAT 25 Jul 01:22:55 01:26:16 64° 75° (ENE) 01:29:41 437.505
DUCHIFAT 1 25 Jul 01:23:17 01:27:28 67° 101° (E) 01:31:36 145.980
POLYITAN 1 25 Jul 01:25:24 01:29:39 89° 114° (ESE) 01:33:49 437.675
FO-29 25 Jul 01:28:21 01:31:31 13° 312° (NW) 01:34:34 435.910
UKube-1 25 Jul 01:31:56 01:35:57 40° 70° (ENE) 01:40:00 .
O/OREOS (USA 219) 25 Jul 01:32:04 01:36:29 56° 63° (ENE) 01:40:55 437.305
SPROUT 25 Jul 01:35:30 01:39:25 34° 263° (W) 01:43:22 437.525
nSIGHT-1 25 Jul 01:35:54 01:38:32 22° 8° (N) 01:41:08 .
ESTCUBE 1 25 Jul 01:36:00 01:37:02 11° 272° (W) 01:38:06 437.505/2401.250
QB50P2 25 Jul 01:38:31 01:42:41 60° 286° (WNW) 01:46:48 145.880/145.840
EO-79 25 Jul 01:50:43 01:54:48 48° 288° (WNW) 01:58:49 145.935-145.965
NANOSAT C BR1 25 Jul 01:50:51 01:54:58 53° 287° (WNW) 01:59:01 145.865
BUGSAT 1 25 Jul 01:53:09 01:57:02 40° 98° (E) 02:00:51 437.445
M-CUBED/EXP-1 PRIME 25 Jul 02:01:16 02:02:58 12° 306° (NW) 02:04:40 437.505
Oscar 19 25 Jul 02:04:55 02:09:07 24° 94° (E) 02:13:17 437.125/150
VELOX 1 25 Jul 02:20:46 02:23:19 15° 269° (W) 02:25:52 145.980
DX 1 25 Jul 02:24:54 02:28:56 37° 262° (W) 02:33:02 434.975-435.025
MOZHAYETS 4 25 Jul 02:28:12 02:30:25 13° 60° (ENE) 02:32:37
Gurwin Techsat 1B 25 Jul 02:29:14 02:33:43 27° 94° (E) 02:38:09 435.225
ISS 25 Jul 02:29:53 02:32:51 32° 18° (NNE) 02:35:50 437.550
Tancredo 1 25 Jul 02:55:17 02:58:15 87° 207° (SSW) 03:01:13 437.200
BEESAT 25 Jul 03:00:34 03:04:59 38° 68° (ENE) 03:09:24 436.000
DUCHIFAT 1 25 Jul 03:00:45 03:02:35 13° 299° (WNW) 03:04:25 145.980
RS-15 25 Jul 03:05:54 03:16:48 43° 252° (WSW) 03:27:13 29.354- 29.394
UKube-1 25 Jul 03:08:57 03:12:08 20° 267° (W) 03:15:20 .
nSIGHT-1 25 Jul 03:12:13 03:15:24 56° 27° (NNE) 03:18:35 .
O/OREOS (USA 219) 25 Jul 03:12:50 03:15:25 15° 261° (W) 03:18:00 437.305
ITUPSAT 1 25 Jul 03:13:27 03:18:04 50° 71° (ENE) 03:22:41 437.325
BUGSAT 1 25 Jul 03:29:13 03:32:06 19° 296° (WNW) 03:34:57 437.445
Oscar 19 25 Jul 03:43:43 03:48:37 44° 291° (WNW) 03:53:30 437.125/150
ITAMSAT 1 25 Jul 03:56:23 04:00:13 20° 92° (E) 04:03:59 435.822/435.867
MOZHAYETS 4 25 Jul 04:02:24 04:06:58 75° 258° (WSW) 04:11:33
ISS 25 Jul 04:06:16 04:09:28 52° 217° (SW) 04:12:38 437.550
Gurwin Techsat 1B 25 Jul 04:08:47 04:13:47 42° 292° (WNW) 04:18:46 435.225
AO-7 25 Jul 04:27:36 04:35:32 44° 100° (E) 04:43:22 .
Tancredo 1 25 Jul 04:32:43 04:33:11 10° 228° (SW) 04:33:39 437.200
CUBESAT XI-V 25 Jul 04:36:47 04:41:12 50° 72° (ENE) 04:45:39 437.345
BEESAT 25 Jul 04:38:56 04:42:50 25° 265° (W) 04:46:46 436.000
KKS-1 25 Jul 04:44:34 04:48:38 35° 69° (ENE) 04:52:44 437.445
nSIGHT-1 25 Jul 04:49:04 04:51:34 21° 224° (SW) 04:54:04 .
ITUPSAT 1 25 Jul 04:52:45 04:56:09 19° 268° (W) 04:59:35 437.325
STARS 25 Jul 05:14:43 05:18:37 31° 68° (ENE) 05:22:33 437.465
PCSat 25 Jul 05:16:35 05:21:23 34° 111° (ESE) 05:26:14 145.827
ITAMSAT 1 25 Jul 05:34:55 05:39:59 54° 290° (WNW) 05:45:01 435.822/435.867
YUBILEINY 25 Jul 05:58:12 06:06:34 46° 72° (ENE) 06:14:49 435.215
DOVE 4 25 Jul 06:11:55 06:16:33 30° 94° (E) 06:21:02 437.250
CUBESAT XI-V 25 Jul 06:15:47 06:18:51 18° 269° (W) 06:21:57 437.345
AO-7 25 Jul 06:20:27 06:28:18 47° 299° (WNW) 06:36:07 .
KKS-1 25 Jul 06:21:37 06:25:15 24° 265° (W) 06:28:55 437.445
XW-2F 25 Jul 06:29:23 06:30:51 12° 90° (E) 06:32:19 145.980 - 146.000
STARS 25 Jul 06:51:11 06:54:57 27° 265° (W) 06:58:43 437.465
XW-2D 25 Jul 06:56:38 06:59:54 27° 96° (E) 07:03:08 145.860 - 145.880
PCSat 25 Jul 06:59:36 07:04:42 40° 310° (NW) 07:09:49 145.827
XW-2B 25 Jul 07:06:33 07:10:01 34° 97° (E) 07:13:28 145.730 - 145.750
SO-50 25 Jul 07:15:41 07:20:12 71° 122° (ESE) 07:24:42 436.795
CUTE-I 25 Jul 07:22:14 07:27:22 45° 99° (E) 07:32:27 437.470
XW-2C 25 Jul 07:23:43 07:27:26 57° 100° (E) 07:31:08 145.795 - 145.815
STRAND 1 25 Jul 07:25:04 07:29:59 47° 70° (ENE) 07:34:55 437.568
HO-68 25 Jul 07:29:10 07:34:12 20° 90° (E) 07:39:11 435.675
NUDT-PHONESAT 25 Jul 07:31:24 07:35:00 51° 100° (E) 07:38:35 437.300
CUTE 1.7 + AOD 2 25 Jul 07:45:39 07:48:35 18° 92° (E) 07:51:29 437.475
KAITUO 1B 25 Jul 07:45:45 07:49:30 82° 103° (ESE) 07:53:13 145.475/437.950
LilacSat-2 25 Jul 07:47:08 07:50:54 68° 285° (WNW) 07:54:40 437.200
DOVE 4 25 Jul 07:49:24 07:54:14 37° 292° (WNW) 07:58:55 437.250
YUBILEINY 25 Jul 07:55:14 08:03:17 43° 273° (W) 08:11:16 435.215
SEEDS 25 Jul 07:58:04 08:00:37 15° 91° (E) 08:03:08 437.485
XW-2F 25 Jul 08:01:38 08:05:16 50° 287° (WNW) 08:08:55 145.980 - 146.000
FO-29 25 Jul 08:10:42 08:15:42 19° 53° (NE) 08:20:43 435.910
AO-7 25 Jul 08:15:58 08:19:00 12° 322° (NW) 08:22:03 .
UWE-3 25 Jul 08:24:16 08:26:22 13° 90° (E) 08:28:27 435.000/436.395/437.385
XW-2D 25 Jul 08:31:00 08:33:57 22° 292° (WNW) 08:36:54 145.860 - 145.880
ZACube-1 25 Jul 08:39:09 08:39:44 10° 88° (E) 08:40:18 437.345
AAUSAT CUBESAT 2 25 Jul 08:40:53 08:44:03 21° 93° (E) 08:47:13 437.432
XW-2B 25 Jul 08:41:21 08:43:58 18° 294° (WNW) 08:46:34 145.730 - 145.750
XW-2A 25 Jul 08:48:01 08:51:16 49° 100° (E) 08:54:30 145.665 - 145.685
PCSat 25 Jul 08:48:33 08:49:39 11° 332° (NNW) 08:50:47 145.827
SO-50 25 Jul 08:57:49 09:01:07 20° 322° (NW) 09:04:26 436.795
XW-2C 25 Jul 08:59:42 09:01:09 12° 297° (WNW) 09:02:36 145.795 - 145.815
CUBEBUG 2 25 Jul 09:01:13 09:05:28 59° 100° (E) 09:09:34 437.445
CUTE-I 25 Jul 09:02:44 09:07:09 27° 297° (WNW) 09:11:34 437.470
Oscar 11 25 Jul 09:03:33 09:05:55 14° 90° (E) 09:08:17 .
STRAND 1 25 Jul 09:05:21 09:09:23 23° 267° (W) 09:13:26 437.568
NUDT-PHONESAT 25 Jul 09:06:53 09:08:27 12° 296° (WNW) 09:10:02 437.300
HO-68 25 Jul 09:15:30 09:22:40 80° 289° (WNW) 09:29:49 435.675
AO-73 25 Jul 09:16:50 09:20:15 25° 94° (E) 09:23:39 145.935
CUTE 1.7 + AOD 2 25 Jul 09:20:34 09:24:36 42° 288° (WNW) 09:28:37 437.475
TIGRISAT 25 Jul 09:31:09 09:34:42 22° 65° (ENE) 09:38:13 435.000
SEEDS 25 Jul 09:32:29 09:36:34 49° 287° (WNW) 09:40:38 437.485
M-CUBED/EXP-1 PRIME 25 Jul 09:39:26 09:41:45 16° 56° (NE) 09:44:11 437.505
FO-29 25 Jul 09:51:48 09:59:26 75° 72° (ENE) 10:07:18 435.910
UWE-3 25 Jul 09:59:05 10:03:12 54° 287° (WNW) 10:07:13 435.000/436.395/437.385
ZACube-1 25 Jul 10:12:22 10:16:31 70° 284° (WNW) 10:20:36 437.345
AAUSAT CUBESAT 2 25 Jul 10:15:47 10:19:36 35° 290° (WNW) 10:23:25 437.432
PRISM 25 Jul 10:16:29 10:20:29 55° 72° (ENE) 10:24:31 437.425
UNISAT 6 25 Jul 10:22:12 10:26:50 76° 75° (ENE) 10:31:24 437.425
XW-2A 25 Jul 10:23:00 10:23:34 10° 297° (WNW) 10:24:08 145.665 - 145.685
Oscar 11 25 Jul 10:38:10 10:42:23 55° 287° (WNW) 10:46:36 .
CUBEBUG 2 25 Jul 10:39:19 10:41:34 14° 298° (WNW) 10:43:47 437.445
AO-73 25 Jul 10:52:55 10:56:29 29° 291° (WNW) 11:00:02 145.935
QB50P2 25 Jul 10:58:57 11:00:55 13° 61° (ENE) 11:02:54 145.880/145.840
HO-68 25 Jul 11:04:52 11:09:19 18° 309° (NW) 11:13:47 435.675
TIGRISAT 25 Jul 11:06:44 11:11:08 42° 262° (W) 11:15:29 435.000
EO-79 25 Jul 11:10:16 11:12:48 16° 63° (ENE) 11:15:20 145.935-145.965
NANOSAT C BR1 25 Jul 11:10:28 11:12:42 14° 62° (ENE) 11:14:57 145.865
M-CUBED/EXP-1 PRIME 25 Jul 11:12:13 11:15:45 47° 256° (WSW) 11:19:35 437.505
DELFI C3 25 Jul 11:15:59 11:20:01 78° 284° (WNW) 11:24:00 145.870
AIST 2D 25 Jul 11:28:55 11:32:13 43° 73° (ENE) 11:35:33 435.315
FO-29 25 Jul 11:39:00 11:45:05 25° 271° (W) 11:51:20 435.910
EO-88 25 Jul 11:39:48 11:43:24 60° 285° (WNW) 11:46:59 145.990 - 145.960
LO-87 25 Jul 11:43:58 11:46:31 18° 93° (E) 11:49:02 145.935 - 145.965
ESTCUBE 1 25 Jul 11:47:27 11:50:01 15° 90° (E) 11:52:34 437.505/2401.250
NO-84 25 Jul 11:52:38 11:55:35 55° 137° (SE) 11:58:49 435.350 FM
PRISM 25 Jul 11:54:05 11:56:06 13° 269° (W) 11:58:07 437.425
UNISAT 6 25 Jul 12:02:19 12:04:01 12° 271° (W) 12:05:44 437.425
DUCHIFAT 1 25 Jul 12:15:57 12:20:07 58° 73° (ENE) 12:24:18 145.980
POLYITAN 1 25 Jul 12:18:48 12:23:05 79° 74° (ENE) 12:27:21 437.675
PCSat 25 Jul 12:21:30 12:22:30 10° 27° (NNE) 12:23:30 145.827
QB50P2 25 Jul 12:31:55 12:36:10 68° 259° (W) 12:40:26 145.880/145.840
NANOSAT C BR1 25 Jul 12:43:43 12:47:55 61° 259° (WSW) 12:52:09 145.865
BUGSAT 1 25 Jul 12:43:50 12:47:41 35° 70° (ENE) 12:51:33 437.445
EO-79 25 Jul 12:43:56 12:48:07 55° 260° (W) 12:52:19 145.935-145.965
AO-85 25 Jul 12:49:12 12:52:34 26° 115° (ESE) 12:55:53 145.980
AIST 2D 25 Jul 13:04:22 13:05:40 12° 270° (W) 13:06:58 435.315
LO-87 25 Jul 13:16:49 13:20:00 30° 290° (WNW) 13:23:09 145.935 - 145.965
SPROUT 25 Jul 13:19:17 13:23:12 34° 97° (E) 13:27:03 437.525
ESTCUBE 1 25 Jul 13:22:44 13:27:11 58° 287° (WNW) 13:31:37 437.505/2401.250
Oscar 19 25 Jul 13:23:01 13:27:47 41° 68° (ENE) 13:32:35 437.125/150
BEESAT 3 25 Jul 13:25:01 13:28:58 64° 121° (ESE) 13:32:58 437.485
NO-84 25 Jul 13:30:36 13:33:17 24° 338° (NNW) 13:36:09 435.350 FM
AO-7 25 Jul 13:39:40 13:44:48 18° 45° (NE) 13:49:55 .
Gurwin Techsat 1B 25 Jul 13:51:32 13:56:38 49° 70° (ENE) 14:01:45 435.225
DUCHIFAT 1 25 Jul 13:54:06 13:56:09 13° 270° (W) 13:58:12 145.980
PCSat 25 Jul 14:02:22 14:07:30 39° 50° (NE) 14:12:33 145.827
BEESAT 2 25 Jul 14:05:40 14:09:35 58° 121° (ESE) 14:13:35 435.950
SO-50 25 Jul 14:05:57 14:08:58 17° 36° (NE) 14:12:00 436.795
VELOX 1 25 Jul 14:06:44 14:11:14 88° 284° (WNW) 14:15:41 145.980
DX 1 25 Jul 14:11:17 14:15:14 32° 97° (E) 14:19:09 434.975-435.025
50 SAT 25 Jul 14:15:54 14:19:17 51° 100° (E) 14:22:37 437.505
BUGSAT 1 25 Jul 14:19:49 14:23:07 22° 266° (W) 14:26:25 437.445
AO-85 25 Jul 14:29:19 14:32:51 31° 313° (NW) 14:36:22 145.980
UKube-1 25 Jul 14:52:52 14:57:10 59° 102° (ESE) 15:01:25 .
SPROUT 25 Jul 14:55:32 14:58:55 23° 294° (WNW) 15:02:16 437.525
Oscar 19 25 Jul 15:03:00 15:07:14 26° 266° (W) 15:11:29 437.125/150
BEESAT 3 25 Jul 15:04:10 15:06:56 18° 320° (NW) 15:09:45 437.485
NO-84 25 Jul 15:09:47 15:11:46 14° 360° (N) 15:13:49 435.350 FM
ITUPSAT 1 25 Jul 15:15:00 15:16:08 11° 88° (E) 15:17:16 437.325
ITAMSAT 1 25 Jul 15:15:23 15:20:09 37° 67° (ENE) 15:24:56 435.822/435.867
RS-15 25 Jul 15:18:39 15:28:49 33° 104° (ESE) 15:39:06 29.354- 29.394
AO-7 25 Jul 15:27:49 15:36:04 68° 66° (ENE) 15:44:23 .
Gurwin Techsat 1B 25 Jul 15:32:40 15:36:49 23° 267° (W) 15:41:01 435.225
BEESAT 2 25 Jul 15:44:47 15:47:42 19° 320° (NW) 15:50:37 435.950
SO-50 25 Jul 15:45:28 15:50:02 87° 235° (SW) 15:54:37 436.795
O/OREOS (USA 219) 25 Jul 15:45:45 15:50:04 49° 108° (ESE) 15:54:24 437.305
VELOX 1 25 Jul 15:45:53 15:46:56 11° 302° (WNW) 15:48:00 145.980
PCSat 25 Jul 15:45:56 15:50:49 34° 249° (WSW) 15:55:38 145.827
DX 1 25 Jul 15:47:38 15:51:18 26° 294° (WNW) 15:54:56 434.975-435.025
50 SAT 25 Jul 15:50:34 15:51:34 11° 297° (WNW) 15:52:33 437.505
MOZHAYETS 4 25 Jul 15:56:22 15:59:58 22° 93° (E) 16:03:33
UKube-1 25 Jul 16:30:12 16:32:43 15° 298° (WNW) 16:35:14 .
CUBESAT XI-V 25 Jul 16:33:57 16:35:21 11° 88° (E) 16:36:45 437.345
BEESAT 25 Jul 16:36:13 16:41:00 73° 103° (ESE) 16:45:43 436.000
NO-84 25 Jul 16:47:19 16:50:16 22° 21° (NNE) 16:53:24 435.350 FM
ITUPSAT 1 25 Jul 16:49:48 16:54:35 85° 284° (WNW) 16:59:20 437.325
ITAMSAT 1 25 Jul 16:55:04 16:59:39 30° 264° (W) 17:04:14 435.822/435.867
CUTE-I 25 Jul 17:09:04 17:11:32 13° 56° (NE) 17:14:01 437.470
DOVE 4 25 Jul 17:18:13 17:22:39 34° 67° (ENE) 17:27:18 437.250
AO-7 25 Jul 17:22:26 17:29:24 29° 266° (W) 17:36:27 .
O/OREOS (USA 219) 25 Jul 17:26:27 17:29:45 20° 307° (NW) 17:33:04 437.305
RS-15 25 Jul 17:27:54 17:40:11 80° 306° (NW) 17:52:37 29.354- 29.394
SO-50 25 Jul 17:29:03 17:29:46 10° 253° (WSW) 17:30:28 436.795
MOZHAYETS 4 25 Jul 17:33:01 17:37:15 38° 290° (WNW) 17:41:28
XW-2D 25 Jul 17:39:54 17:42:25 17° 66° (ENE) 17:44:56 145.860 - 145.880
XW-2B 25 Jul 17:49:34 17:52:26 21° 67° (ENE) 17:55:19 145.730 - 145.750
HO-68 25 Jul 18:00:30 18:05:22 20° 53° (NE) 18:10:14 435.675
XW-2C 25 Jul 18:06:20 18:09:43 33° 71° (ENE) 18:13:06 145.795 - 145.815
CUBESAT XI-V 25 Jul 18:08:36 18:13:17 81° 286° (WNW) 18:17:59 437.345
KKS-1 25 Jul 18:09:52 18:14:17 56° 101° (E) 18:18:40 437.445
NUDT-PHONESAT 25 Jul 18:12:03 18:15:14 28° 70° (ENE) 18:18:25 437.300
BEESAT 25 Jul 18:15:35 18:18:11 15° 300° (WNW) 18:20:45 436.000
NO-84 25 Jul 18:24:20 18:28:09 87° 38° (NE) 18:32:17 435.350 FM
KAITUO 1B 25 Jul 18:26:54 18:30:25 43° 73° (ENE) 18:33:56 145.475/437.950
LilacSat-2 25 Jul 18:29:58 18:33:42 69° 75° (ENE) 18:37:27 437.200
ITUPSAT 1 25 Jul 18:30:08 18:31:38 11° 303° (WNW) 18:33:08 437.325
STARS 25 Jul 18:38:06 18:42:23 47° 100° (E) 18:46:36 437.465
CUTE 1.7 + AOD 2 25 Jul 18:40:14 18:42:47 16° 64° (ENE) 18:45:23 437.475
XW-2F 25 Jul 18:43:20 18:47:03 90° 75° (ENE) 18:50:49 145.980 - 146.000
CUTE-I 25 Jul 18:45:22 18:50:45 83° 74° (ENE) 18:56:09 437.470
SEEDS 25 Jul 18:51:52 18:53:56 14° 62° (ENE) 18:56:01 437.485
DOVE 4 25 Jul 18:55:58 19:00:18 31° 266° (W) 19:04:52 437.250
YUBILEINY 25 Jul 19:00:45 19:09:06 49° 88° (E) 19:17:28 435.215
XW-2D 25 Jul 19:12:53 19:16:20 35° 262° (W) 19:19:49 145.860 - 145.880
XW-2A 25 Jul 19:20:58 19:23:35 21° 69° (ENE) 19:26:13 145.665 - 145.685
UWE-3 25 Jul 19:22:25 19:25:10 16° 63° (ENE) 19:27:51 435.000/436.395/437.385
XW-2B 25 Jul 19:23:12 19:26:29 28° 264° (W) 19:29:45 145.730 - 145.750
AAUSAT CUBESAT 2 25 Jul 19:32:51 19:35:33 17° 64° (ENE) 19:38:15 437.432
STRAND 1 25 Jul 19:35:37 19:38:11 14° 89° (E) 19:40:45 437.568
ZACube-1 25 Jul 19:35:56 19:37:36 12° 61° (ENE) 19:39:16 437.345
XW-2C 25 Jul 19:41:24 19:44:00 18° 267° (W) 19:46:36 145.795 - 145.815
RS-15 25 Jul 19:43:59 19:54:57 35° 335° (NNW) 20:05:54 29.354- 29.394
HO-68 25 Jul 19:44:57 19:52:09 88° 73° (ENE) 19:59:23 435.675
NUDT-PHONESAT 25 Jul 19:46:23 19:49:09 20° 266° (W) 19:51:55 437.300
KKS-1 25 Jul 19:47:34 19:50:23 17° 298° (WNW) 19:53:12 437.445
CUBESAT XI-V 25 Jul 19:49:07 19:49:51 10° 302° (WNW) 19:50:36 437.345
CUBEBUG 2 25 Jul 19:59:51 20:04:28 60° 74° (ENE) 20:09:00 437.445
Oscar 11 25 Jul 20:00:12 20:02:30 14° 62° (ENE) 20:04:49 .
KAITUO 1B 25 Jul 20:02:51 20:04:38 13° 269° (W) 20:06:27 145.475/437.950
NO-84 25 Jul 20:03:00 20:05:16 15° 234° (SW) 20:07:36 435.350 FM
BEESAT 3 25 Jul 20:04:54 20:05:57 11° 32° (NNE) 20:07:00 437.485
AO-73 25 Jul 20:13:31 20:17:07 25° 67° (ENE) 20:20:39 145.935
CUTE 1.7 + AOD 2 25 Jul 20:14:10 20:18:14 50° 261° (W) 20:22:20 437.475
STARS 25 Jul 20:15:17 20:18:22 19° 297° (WNW) 20:21:26 437.465
SEEDS 25 Jul 20:25:01 20:29:08 61° 260° (W) 20:33:15 437.485
CUTE-I 25 Jul 20:28:53 20:31:27 13° 272° (W) 20:34:01 437.470
BEESAT 2 25 Jul 20:46:19 20:47:14 11° 32° (NNE) 20:48:09 435.950
ISS 25 Jul 20:47:33 20:50:00 20° 135° (SE) 20:52:28 437.550
XW-2A 25 Jul 20:53:32 20:56:14 22° 265° (W) 20:58:56 145.665 - 145.685
UWE-3 25 Jul 20:56:39 21:01:10 60° 259° (W) 21:05:35 435.000/436.395/437.385
YUBILEINY 25 Jul 20:57:55 21:06:04 40° 290° (WNW) 21:14:16 435.215
Tancredo 1 25 Jul 20:59:46 21:02:40 68° 146° (SSE) 21:05:36 437.200
AAUSAT CUBESAT 2 25 Jul 21:06:43 21:10:39 44° 262° (W) 21:14:37 437.432
ZACube-1 25 Jul 21:08:51 21:13:18 78° 259° (W) 21:17:40 437.345
STRAND 1 25 Jul 21:12:49 21:17:57 76° 285° (WNW) 21:23:01 437.568
AO-85 25 Jul 21:17:40 21:21:36 39° 49° (NE) 21:25:46 145.980
nSIGHT-1 25 Jul 21:28:15 21:31:23 48° 143° (SE) 21:34:31 .
Oscar 11 25 Jul 21:33:54 21:38:09 61° 260° (W) 21:42:25 .
HO-68 25 Jul 21:36:11 21:40:45 18° 271° (W) 21:45:21 435.675
CUBEBUG 2 25 Jul 21:38:41 21:41:25 15° 270° (W) 21:44:08 437.445
BEESAT 3 25 Jul 21:40:23 21:44:23 59° 53° (NE) 21:48:17 437.485
AO-73 25 Jul 21:49:14 21:53:12 32° 263° (W) 21:57:07 145.935
RS-15 25 Jul 22:02:04 22:12:21 29° 10° (N) 22:22:20 29.354- 29.394
DELFI C3 25 Jul 22:02:15 22:06:10 70° 75° (ENE) 22:10:07 145.870
UNISAT 6 25 Jul 22:14:09 22:16:14 13° 89° (E) 22:18:18 437.425
EO-88 25 Jul 22:18:25 22:22:01 68° 75° (ENE) 22:25:39 145.990 - 145.960
BEESAT 2 25 Jul 22:21:51 22:25:53 56° 52° (NE) 22:29:51 435.950
ISS 25 Jul 22:23:01 22:26:13 59° 332° (NNW) 22:29:27 437.550
LO-87 25 Jul 22:23:17 22:24:03 11° 62° (ENE) 22:24:50 145.935 - 145.965
Tancredo 1 25 Jul 22:35:45 22:38:16 25° 344° (NNW) 22:40:49 437.200
FO-29 25 Jul 22:46:02 22:53:07 59° 99° (E) 22:59:20 435.910
ESTCUBE 1 25 Jul 22:48:28 22:51:22 17° 63° (ENE) 22:54:17 437.505/2401.250
M-CUBED/EXP-1 PRIME 25 Jul 22:51:01 22:52:11 11° 93° (E) 22:53:22 437.505
STRAND 1 25 Jul 22:54:45 22:56:14 11° 305° (NW) 22:57:43 437.568
TIGRISAT 25 Jul 22:56:43 23:00:40 34° 97° (E) 23:04:33 435.000
AO-85 25 Jul 22:58:22 23:01:51 24° 245° (WSW) 23:05:30 145.980
nSIGHT-1 25 Jul 23:04:55 23:07:53 32° 341° (NNW) 23:10:51 .
BEESAT 3 25 Jul 23:19:24 23:21:27 14° 250° (WSW) 23:23:29 437.485
PRISM 25 Jul 23:31:08 23:35:19 74° 102° (ESE) 23:39:29 437.425
VELOX 1 25 Jul 23:32:08 23:33:36 12° 59° (ENE) 23:35:06 145.980
UNISAT 6 25 Jul 23:49:05 23:53:22 58° 287° (WNW) 23:57:33 437.425
LO-87 25 Jul 23:53:22 23:56:58 62° 259° (W) 00:00:36 145.935 - 145.965
ISS 26 Jul 00:00:30 00:03:10 22° 352° (N) 00:05:50 437.550
BEESAT 2 26 Jul 00:00:50 00:03:11 15° 250° (WSW) 00:05:31 435.950
POLYITAN 1 26 Jul 00:04:24 00:05:40 11° 89° (E) 00:06:56 437.675
Tancredo 1 26 Jul 00:12:09 00:14:21 19° 4° (N) 00:16:34 437.200
SPROUT 26 Jul 00:13:48 00:17:37 32° 69° (ENE) 00:21:26 437.525
O/OREOS (USA 219) 26 Jul 00:15:53 00:18:41 16° 51° (NE) 00:21:29 437.305
QB50P2 26 Jul 00:16:12 00:18:59 17° 92° (E) 00:21:46 145.880/145.840
RS-15 26 Jul 00:16:32 00:28:29 54° 42° (NE) 00:39:49 29.354- 29.394
M-CUBED/EXP-1 PRIME 26 Jul 00:22:29 00:27:06 89° 302° (WNW) 00:31:47 437.505
ESTCUBE 1 26 Jul 00:23:23 00:27:45 53° 260° (W) 00:32:10 437.505/2401.250
AIST 2D 26 Jul 00:25:18 00:28:39 43° 99° (E) 00:31:59 435.315
NANOSAT C BR1 26 Jul 00:27:15 00:30:12 18° 92° (E) 00:33:07 145.865
EO-79 26 Jul 00:27:37 00:30:48 21° 93° (E) 00:33:58 145.935-145.965
FO-29 26 Jul 00:31:39 00:37:38 29° 301° (WNW) 00:43:03 435.910
TIGRISAT 26 Jul 00:33:47 00:37:11 23° 294° (WNW) 00:40:32 435.000
nSIGHT-1 26 Jul 00:42:24 00:44:57 21° 1° (N) 00:47:29 .
50 SAT 26 Jul 00:48:55 00:51:40 23° 68° (ENE) 00:54:25 437.505
VELOX 1 26 Jul 01:04:57 01:09:22 85° 256° (WSW) 01:13:51 145.980
DX 1 26 Jul 01:08:01 01:11:56 33° 68° (ENE) 01:15:53 434.975-435.025
PRISM 26 Jul 01:08:27 01:10:01 12° 300° (WNW) 01:11:34 437.425
